N623GA KDAY-KBKL

Flight info

Callsign N623GA
Flight time 1h 7m
Altitude 7000
Route ROD VIZXO
Aircraft KODI/L-SBDGRY/S

Departure

Time 2026-04-26 21:06
Airport James M. Cox Dayton International Airport (KDAY)

Arrival

Time 2026-04-26 22:13
Airport Burke Lakefront Airport (KBKL)
Time Latitude Longitude Altitude Speed Heading
2026-04-26 20:47 39.90510 -84.20828 1010 ft 0 kts 31°
2026-04-26 21:00 39.90512 -84.20828 1009 ft 1 kts
2026-04-26 21:01 39.90528 -84.20878 1009 ft 11 kts 277°
2026-04-26 21:01 39.90585 -84.20950 1010 ft 15 kts 354°
2026-04-26 21:01 39.90707 -84.20953 1009 ft 20 kts
2026-04-26 21:01 39.90856 -84.20961 1007 ft 23 kts 360°
2026-04-26 21:02 39.91019 -84.20968 1003 ft 22 kts 359°
2026-04-26 21:02 39.91107 -84.21044 1002 ft 10 kts 269°
2026-04-26 21:02 39.91107 -84.21064 1002 ft 0 kts 268°
2026-04-26 21:05 39.91103 -84.21118 1003 ft 16 kts 252°
2026-04-26 21:05 39.90888 -84.21171 1006 ft 64 kts 180°
2026-04-26 21:05 39.90366 -84.21162 1162 ft 80 kts 170°
2026-04-26 21:05 39.89751 -84.21174 1294 ft 96 kts 178°
2026-04-26 21:06 39.89014 -84.21240 1377 ft 118 kts 181°
2026-04-26 21:06 39.88149 -84.21306 1644 ft 127 kts 178°
2026-04-26 21:06 39.87359 -84.21009 2045 ft 118 kts 126°
2026-04-26 21:06 39.87274 -84.20055 2456 ft 112 kts 59°
2026-04-26 21:07 39.87971 -84.19659 2851 ft 122 kts 356°
2026-04-26 21:07 39.88812 -84.19964 3176 ft 126 kts 354°
2026-04-26 21:07 39.89675 -84.20093 3543 ft 124 kts
2026-04-26 21:07 39.90548 -84.20206 3867 ft 127 kts
2026-04-26 21:08 39.91419 -84.20373 4305 ft 130 kts 346°
2026-04-26 21:08 39.92290 -84.20702 4786 ft 130 kts 358°
2026-04-26 21:08 39.93168 -84.20539 5184 ft 129 kts 22°
2026-04-26 21:08 39.94035 -84.20180 5629 ft 132 kts 23°
2026-04-26 21:09 39.94914 -84.19798 6075 ft 134 kts 22°
2026-04-26 21:09 39.95804 -84.19400 6476 ft 137 kts 24°
2026-04-26 21:09 39.96711 -84.18988 6850 ft 140 kts 24°
2026-04-26 21:09 39.97682 -84.18535 6976 ft 160 kts 24°
2026-04-26 21:10 39.98797 -84.18020 6983 ft 178 kts 23°
2026-04-26 21:10 40.00001 -84.17480 6990 ft 187 kts 22°
2026-04-26 21:10 40.01258 -84.16916 6990 ft 194 kts 21°
2026-04-26 21:10 40.02538 -84.16337 6993 ft 196 kts 21°
2026-04-26 21:11 40.03830 -84.15745 6994 ft 197 kts 22°
2026-04-26 21:11 40.05128 -84.15153 6994 ft 198 kts 21°
2026-04-26 21:11 40.06417 -84.14568 6991 ft 198 kts 22°
2026-04-26 21:11 40.07722 -84.13976 6991 ft 198 kts 22°
2026-04-26 21:12 40.09021 -84.13370 7004 ft 198 kts 22°
2026-04-26 21:12 40.10322 -84.12779 7005 ft 198 kts 22°
2026-04-26 21:12 40.11624 -84.12183 7004 ft 198 kts 22°
2026-04-26 21:12 40.12926 -84.11582 7007 ft 198 kts 21°
2026-04-26 21:13 40.14229 -84.10990 7004 ft 199 kts 22°
2026-04-26 21:13 40.15537 -84.10392 7009 ft 199 kts 21°
2026-04-26 21:13 40.16845 -84.09797 7012 ft 199 kts 22°
2026-04-26 21:13 40.18134 -84.09193 7009 ft 198 kts 21°
2026-04-26 21:14 40.19441 -84.08602 7007 ft 199 kts 21°
2026-04-26 21:14 40.20746 -84.08003 7007 ft 199 kts 21°
2026-04-26 21:14 40.22053 -84.07405 7008 ft 198 kts 21°
2026-04-26 21:14 40.23352 -84.06807 7012 ft 198 kts 22°
2026-04-26 21:15 40.24660 -84.06205 7012 ft 200 kts 21°
2026-04-26 21:15 40.25965 -84.05600 7011 ft 198 kts 21°
2026-04-26 21:15 40.27269 -84.05006 7011 ft 198 kts 21°
2026-04-26 21:15 40.28520 -84.04302 7013 ft 195 kts 36°
2026-04-26 21:16 40.29480 -84.03079 7014 ft 192 kts 57°
2026-04-26 21:16 40.30260 -84.01653 7015 ft 193 kts 57°
2026-04-26 21:16 40.31053 -84.00262 7017 ft 194 kts 56°
2026-04-26 21:16 40.31849 -83.98842 7017 ft 194 kts 57°
2026-04-26 21:17 40.32645 -83.97417 7012 ft 193 kts 56°
2026-04-26 21:17 40.33439 -83.95999 7014 ft 193 kts 56°
2026-04-26 21:17 40.34233 -83.94584 7016 ft 193 kts 56°
2026-04-26 21:17 40.35029 -83.93163 7013 ft 193 kts 56°
2026-04-26 21:18 40.35821 -83.91743 7015 ft 192 kts 57°
2026-04-26 21:18 40.36617 -83.90320 7015 ft 192 kts 55°
2026-04-26 21:18 40.37410 -83.88907 7015 ft 192 kts 55°
2026-04-26 21:18 40.38197 -83.87492 7016 ft 191 kts 55°
2026-04-26 21:19 40.38975 -83.86102 7015 ft 191 kts 55°
2026-04-26 21:19 40.39759 -83.84692 7014 ft 191 kts 55°
2026-04-26 21:19 40.40546 -83.83282 7016 ft 191 kts 55°
2026-04-26 21:19 40.41333 -83.81874 7017 ft 191 kts 55°
2026-04-26 21:20 40.42119 -83.80461 7013 ft 191 kts 55°
2026-04-26 21:20 40.42904 -83.79052 7017 ft 192 kts 55°
2026-04-26 21:20 40.43695 -83.77644 7017 ft 191 kts 55°
2026-04-26 21:20 40.44477 -83.76231 7016 ft 192 kts 56°
2026-04-26 21:21 40.45259 -83.74810 7012 ft 192 kts 55°
2026-04-26 21:21 40.45780 -83.73879 7013 ft 191 kts 55°
2026-04-26 21:21 40.46563 -83.72472 7011 ft 191 kts 55°
2026-04-26 21:21 40.47612 -83.70588 7016 ft 191 kts 55°
2026-04-26 21:22 40.48126 -83.69653 7011 ft 191 kts 56°
2026-04-26 21:22 40.48905 -83.68246 7015 ft 191 kts 54°
2026-04-26 21:22 40.49693 -83.66838 7013 ft 191 kts 55°
2026-04-26 21:23 40.51259 -83.64010 7015 ft 191 kts 55°
2026-04-26 21:23 40.52044 -83.62595 7016 ft 192 kts 55°
2026-04-26 21:23 40.52829 -83.61176 7014 ft 192 kts 55°
2026-04-26 21:23 40.53617 -83.59758 7018 ft 192 kts 55°
2026-04-26 21:24 40.54402 -83.58339 7018 ft 192 kts 55°
2026-04-26 21:24 40.55176 -83.56935 7015 ft 192 kts 56°
2026-04-26 21:24 40.55959 -83.55513 7019 ft 192 kts 55°
2026-04-26 21:24 40.56749 -83.54091 7022 ft 192 kts 56°
2026-04-26 21:25 40.57532 -83.52675 7025 ft 191 kts 55°
2026-04-26 21:25 40.58312 -83.51262 7025 ft 191 kts 55°
2026-04-26 21:25 40.59085 -83.49855 7028 ft 189 kts 55°
2026-04-26 21:25 40.59857 -83.48453 7023 ft 189 kts 54°
2026-04-26 21:26 40.60635 -83.47053 7026 ft 190 kts 55°
2026-04-26 21:26 40.61409 -83.45649 7025 ft 190 kts 55°
2026-04-26 21:26 40.62183 -83.44240 7024 ft 190 kts 55°
2026-04-26 21:26 40.62957 -83.42831 7022 ft 190 kts 55°
2026-04-26 21:27 40.63733 -83.41426 7023 ft 189 kts 55°
2026-04-26 21:27 40.64505 -83.40015 7021 ft 190 kts 55°
2026-04-26 21:27 40.65281 -83.38607 7020 ft 190 kts 55°
2026-04-26 21:27 40.66054 -83.37199 7023 ft 189 kts 55°
2026-04-26 21:28 40.66815 -83.35811 7021 ft 189 kts 54°
2026-04-26 21:28 40.67590 -83.34403 7021 ft 190 kts 55°
2026-04-26 21:28 40.68367 -83.32992 7021 ft 189 kts 55°
2026-04-26 21:28 40.69138 -83.31581 7020 ft 190 kts 54°
2026-04-26 21:29 40.69910 -83.30174 7016 ft 189 kts 55°
2026-04-26 21:29 40.70681 -83.28768 7016 ft 189 kts 55°
2026-04-26 21:29 40.71454 -83.27356 7018 ft 190 kts 55°
2026-04-26 21:29 40.72231 -83.25940 7018 ft 190 kts 54°
2026-04-26 21:30 40.73001 -83.24529 7013 ft 190 kts 55°
2026-04-26 21:30 40.73770 -83.23121 7014 ft 190 kts 54°
2026-04-26 21:30 40.74549 -83.21700 7014 ft 191 kts 54°
2026-04-26 21:30 40.75325 -83.20282 7014 ft 190 kts 54°
2026-04-26 21:31 40.76100 -83.18865 7013 ft 191 kts 54°
2026-04-26 21:31 40.76875 -83.17445 7013 ft 190 kts 55°
2026-04-26 21:31 40.77648 -83.16027 7012 ft 190 kts 54°
2026-04-26 21:31 40.78414 -83.14622 7023 ft 190 kts 53°
2026-04-26 21:32 40.79185 -83.13208 7023 ft 190 kts 53°
2026-04-26 21:32 40.79957 -83.11794 7025 ft 189 kts 53°
2026-04-26 21:32 40.80720 -83.10391 7025 ft 189 kts 53°
2026-04-26 21:32 40.81485 -83.08983 7026 ft 188 kts 53°
2026-04-26 21:33 40.82253 -83.07580 7026 ft 188 kts 53°
2026-04-26 21:33 40.83018 -83.06177 7025 ft 189 kts 53°
2026-04-26 21:33 40.83785 -83.04766 7025 ft 189 kts 53°
2026-04-26 21:33 40.84551 -83.03352 7025 ft 188 kts 54°
2026-04-26 21:34 40.85303 -83.01964 7025 ft 188 kts 53°
2026-04-26 21:34 40.86072 -83.00554 7030 ft 189 kts 53°
2026-04-26 21:34 40.86840 -82.99142 7030 ft 189 kts 54°
2026-04-26 21:34 40.87606 -82.97729 7035 ft 189 kts 54°
2026-04-26 21:35 40.88372 -82.96317 7035 ft 188 kts 53°
2026-04-26 21:35 40.89134 -82.94909 7034 ft 188 kts 54°
2026-04-26 21:35 40.89896 -82.93498 7035 ft 189 kts 54°
2026-04-26 21:35 40.90661 -82.92086 7035 ft 189 kts 53°
2026-04-26 21:36 40.91427 -82.90678 7034 ft 188 kts 54°
2026-04-26 21:36 40.92180 -82.89283 7034 ft 189 kts 53°
2026-04-26 21:36 40.92953 -82.87851 7034 ft 190 kts 53°
2026-04-26 21:36 40.93713 -82.86444 7034 ft 190 kts 53°
2026-04-26 21:37 40.94491 -82.85006 7034 ft 190 kts 53°
2026-04-26 21:37 40.95259 -82.83586 7034 ft 190 kts 53°
2026-04-26 21:37 40.96016 -82.82186 7038 ft 190 kts 53°
2026-04-26 21:37 40.96784 -82.80762 7038 ft 189 kts 53°
2026-04-26 21:38 40.97545 -82.79347 7037 ft 189 kts 53°
2026-04-26 21:38 40.98267 -82.77887 7041 ft 190 kts 62°
2026-04-26 21:38 40.98773 -82.76269 7041 ft 190 kts 66°
2026-04-26 21:38 40.99282 -82.74664 7043 ft 189 kts 63°
2026-04-26 21:39 40.99827 -82.73076 7040 ft 189 kts 63°
2026-04-26 21:39 41.00368 -82.71489 7039 ft 189 kts 63°
2026-04-26 21:39 41.00904 -82.69906 7042 ft 188 kts 63°
2026-04-26 21:39 41.01444 -82.68323 7044 ft 189 kts 63°
2026-04-26 21:40 41.01977 -82.66754 7044 ft 189 kts 63°
2026-04-26 21:40 41.02512 -82.65165 7041 ft 189 kts 63°
2026-04-26 21:40 41.03050 -82.63582 7047 ft 188 kts 63°
2026-04-26 21:40 41.03588 -82.62000 7049 ft 189 kts 63°
2026-04-26 21:41 41.04126 -82.60411 7045 ft 189 kts 63°
2026-04-26 21:41 41.04664 -82.58821 7046 ft 189 kts 63°
2026-04-26 21:41 41.05201 -82.57234 7048 ft 189 kts 64°
2026-04-26 21:41 41.05738 -82.55643 7045 ft 189 kts 63°
2026-04-26 21:42 41.06277 -82.54057 7050 ft 189 kts 63°
2026-04-26 21:42 41.06815 -82.52466 7051 ft 189 kts 64°
2026-04-26 21:42 41.07350 -82.50870 7050 ft 190 kts 64°
2026-04-26 21:42 41.07887 -82.49279 7062 ft 189 kts 63°
2026-04-26 21:43 41.08425 -82.47686 7059 ft 190 kts 64°
2026-04-26 21:43 41.08956 -82.46109 7059 ft 189 kts 63°
2026-04-26 21:43 41.09500 -82.44501 7059 ft 188 kts 63°
2026-04-26 21:43 41.10028 -82.42930 7058 ft 189 kts 63°
2026-04-26 21:44 41.10562 -82.41338 7059 ft 189 kts 63°
2026-04-26 21:44 41.11095 -82.39747 7065 ft 188 kts 63°
2026-04-26 21:44 41.11630 -82.38162 7059 ft 188 kts 63°
2026-04-26 21:44 41.12164 -82.36580 7058 ft 188 kts 64°
2026-04-26 21:45 41.12695 -82.34994 7056 ft 188 kts 63°
2026-04-26 21:45 41.13225 -82.33406 7055 ft 188 kts 63°
2026-04-26 21:45 41.13754 -82.31820 7056 ft 189 kts 64°
2026-04-26 21:45 41.14287 -82.30235 7055 ft 188 kts 63°
2026-04-26 21:46 41.14813 -82.28677 7054 ft 187 kts 63°
2026-04-26 21:46 41.15339 -82.27094 7052 ft 188 kts 63°
2026-04-26 21:46 41.15872 -82.25509 7052 ft 188 kts 63°
2026-04-26 21:46 41.16398 -82.23932 7053 ft 187 kts 63°
2026-04-26 21:47 41.16925 -82.22355 7053 ft 187 kts 63°
2026-04-26 21:47 41.17456 -82.20767 7056 ft 189 kts 63°
2026-04-26 21:47 41.17987 -82.19177 7055 ft 188 kts 63°
2026-04-26 21:47 41.18515 -82.17584 7055 ft 187 kts 63°
2026-04-26 21:48 41.19047 -82.16000 7054 ft 188 kts 63°
2026-04-26 21:48 41.19579 -82.14407 7053 ft 189 kts 64°
2026-04-26 21:48 41.20107 -82.12812 7054 ft 188 kts 63°
2026-04-26 21:48 41.20637 -82.11227 7053 ft 188 kts 64°
2026-04-26 21:49 41.21155 -82.09662 7056 ft 188 kts 64°
2026-04-26 21:49 41.21684 -82.08071 7056 ft 188 kts 63°
2026-04-26 21:49 41.22212 -82.06486 7056 ft 188 kts 64°
2026-04-26 21:49 41.22738 -82.04899 7055 ft 188 kts 64°
2026-04-26 21:50 41.23264 -82.03314 7056 ft 187 kts 64°
2026-04-26 21:50 41.23617 -82.02244 7057 ft 187 kts 63°
2026-04-26 21:50 41.24312 -82.00152 7060 ft 187 kts 63°
2026-04-26 21:50 41.24839 -81.98568 7061 ft 187 kts 63°
2026-04-26 21:51 41.25365 -81.96976 7055 ft 188 kts 63°
2026-04-26 21:51 41.25891 -81.95383 7009 ft 190 kts 63°
2026-04-26 21:51 41.26424 -81.93775 7003 ft 189 kts 63°
2026-04-26 21:51 41.26950 -81.92184 7005 ft 188 kts 64°
2026-04-26 21:52 41.27473 -81.90596 7000 ft 188 kts 63°
2026-04-26 21:52 41.27996 -81.89007 6999 ft 187 kts 63°
2026-04-26 21:52 41.28514 -81.87439 7000 ft 187 kts 63°
2026-04-26 21:52 41.29036 -81.85859 6995 ft 187 kts 64°
2026-04-26 21:53 41.29562 -81.84270 6991 ft 187 kts 63°
2026-04-26 21:53 41.30082 -81.82689 6990 ft 186 kts 63°
2026-04-26 21:53 41.30600 -81.81115 6991 ft 186 kts 63°
2026-04-26 21:53 41.31119 -81.79533 6990 ft 187 kts 63°
2026-04-26 21:54 41.31640 -81.77948 6996 ft 187 kts 63°
2026-04-26 21:54 41.32164 -81.76359 6996 ft 187 kts 63°
2026-04-26 21:54 41.32684 -81.74769 6994 ft 187 kts 64°
2026-04-26 21:54 41.33204 -81.73184 6994 ft 187 kts 64°
2026-04-26 21:55 41.33727 -81.71598 7003 ft 188 kts 64°
2026-04-26 21:55 41.34248 -81.70006 6999 ft 188 kts 64°
2026-04-26 21:55 41.34770 -81.68412 6998 ft 187 kts 64°
2026-04-26 21:55 41.35288 -81.66829 7000 ft 187 kts 64°
2026-04-26 21:56 41.35806 -81.65248 7004 ft 186 kts 64°
2026-04-26 21:56 41.36322 -81.63669 7006 ft 186 kts 64°
2026-04-26 21:56 41.36840 -81.62083 7003 ft 186 kts 64°
2026-04-26 21:56 41.37356 -81.60503 7012 ft 186 kts 64°
2026-04-26 21:57 41.37863 -81.58948 7011 ft 186 kts 64°
2026-04-26 21:57 41.38376 -81.57370 7016 ft 185 kts 64°
2026-04-26 21:57 41.38892 -81.55798 7013 ft 185 kts 64°
2026-04-26 21:57 41.39410 -81.54217 7012 ft 186 kts 64°
2026-04-26 21:58 41.39923 -81.52638 7014 ft 186 kts 64°
2026-04-26 21:58 41.40437 -81.51057 7014 ft 186 kts 64°
2026-04-26 21:58 41.40950 -81.49479 7003 ft 186 kts 64°
2026-04-26 21:58 41.41465 -81.47897 7004 ft 186 kts 64°
2026-04-26 21:59 41.41978 -81.46315 7011 ft 186 kts 64°
2026-04-26 21:59 41.42495 -81.44725 7005 ft 187 kts 64°
2026-04-26 21:59 41.43009 -81.43141 7002 ft 186 kts 65°
2026-04-26 21:59 41.43523 -81.41553 7005 ft 186 kts 65°
2026-04-26 22:00 41.44035 -81.39980 7006 ft 186 kts 64°
2026-04-26 22:00 41.44548 -81.38397 7000 ft 186 kts 65°
2026-04-26 22:00 41.45049 -81.36837 7001 ft 186 kts 64°
2026-04-26 22:00 41.45562 -81.35262 6997 ft 185 kts 64°
2026-04-26 22:01 41.46075 -81.33681 6992 ft 185 kts 64°
2026-04-26 22:01 41.46587 -81.32093 6843 ft 186 kts 64°
2026-04-26 22:01 41.47069 -81.30595 6751 ft 164 kts 64°
2026-04-26 22:01 41.47499 -81.29268 6738 ft 150 kts 63°
2026-04-26 22:02 41.47905 -81.28019 6729 ft 144 kts 64°
2026-04-26 22:02 41.48165 -81.27211 6724 ft 142 kts 65°
2026-04-26 22:02 41.48680 -81.25614 6731 ft 139 kts 65°
2026-04-26 22:02 41.49084 -81.24456 6726 ft 137 kts 56°
2026-04-26 22:03 41.49755 -81.23553 6632 ft 141 kts 33°
2026-04-26 22:03 41.50685 -81.23090 6445 ft 147 kts
2026-04-26 22:03 41.51717 -81.23220 6247 ft 153 kts 345°
2026-04-26 22:03 41.52635 -81.23993 6034 ft 161 kts 317°
2026-04-26 22:04 41.53188 -81.25282 5823 ft 167 kts 288°
2026-04-26 22:04 41.53435 -81.26786 5606 ft 165 kts 285°
2026-04-26 22:04 41.53683 -81.28277 5387 ft 163 kts 285°
2026-04-26 22:04 41.53931 -81.29748 5175 ft 162 kts 286°
2026-04-26 22:05 41.54180 -81.31229 4960 ft 165 kts 286°
2026-04-26 22:05 41.54434 -81.32735 4729 ft 166 kts 285°
2026-04-26 22:05 41.54683 -81.34226 4515 ft 164 kts 284°
2026-04-26 22:05 41.54931 -81.35707 4299 ft 163 kts 284°
2026-04-26 22:06 41.55178 -81.37188 4077 ft 162 kts 284°
2026-04-26 22:06 41.55420 -81.38652 3867 ft 160 kts 283°
2026-04-26 22:06 41.55663 -81.40108 3655 ft 161 kts 282°
2026-04-26 22:06 41.55906 -81.41572 3441 ft 161 kts 282°
2026-04-26 22:07 41.56150 -81.43031 3228 ft 162 kts 282°
2026-04-26 22:07 41.56367 -81.44512 3015 ft 162 kts 272°
2026-04-26 22:07 41.56205 -81.45930 3001 ft 148 kts 254°
2026-04-26 22:07 41.56058 -81.46802 2983 ft 144 kts 255°
2026-04-26 22:08 41.55791 -81.48537 2880 ft 140 kts 255°
2026-04-26 22:08 41.55589 -81.49814 2808 ft 143 kts 256°
2026-04-26 22:08 41.55383 -81.51124 2717 ft 146 kts 255°
2026-04-26 22:08 41.55241 -81.52001 2653 ft 145 kts 257°
2026-04-26 22:09 41.55041 -81.53292 2561 ft 141 kts 257°
2026-04-26 22:09 41.54767 -81.54998 2433 ft 140 kts 257°
2026-04-26 22:09 41.54635 -81.55846 2378 ft 132 kts 258°
2026-04-26 22:09 41.54405 -81.57290 2179 ft 111 kts 258°
2026-04-26 22:10 41.54290 -81.57967 2096 ft 118 kts 255°
2026-04-26 22:10 41.54093 -81.59121 1946 ft 137 kts 261°
2026-04-26 22:10 41.53916 -81.60337 1768 ft 127 kts 261°
2026-04-26 22:10 41.53735 -81.61471 1587 ft 125 kts 261°
2026-04-26 22:11 41.53565 -81.62570 1418 ft 121 kts 265°
2026-04-26 22:11 41.53526 -81.63729 1263 ft 131 kts 275°
2026-04-26 22:11 41.53553 -81.64901 1334 ft 122 kts 274°
2026-04-26 22:11 41.53484 -81.66047 1345 ft 124 kts 267°
2026-04-26 22:12 41.53363 -81.67155 1459 ft 119 kts 261°
2026-04-26 22:12 41.53134 -81.68262 1425 ft 126 kts 257°
2026-04-26 22:12 41.52702 -81.69290 1439 ft 127 kts 234°
2026-04-26 22:12 41.52138 -81.70236 1223 ft 134 kts 230°
2026-04-26 22:13 41.51423 -81.70595 1167 ft 102 kts 143°
2026-04-26 22:13 41.51135 -81.69838 851 ft 90 kts 72°
2026-04-26 22:13 41.51414 -81.69203 630 ft 63 kts 51°
2026-04-26 22:13 41.51582 -81.68855 587 ft 32 kts 55°
2026-04-26 22:14 41.51658 -81.68657 588 ft 19 kts 150°
2026-04-26 22:14 41.51515 -81.68746 589 ft 12 kts 205°
2026-04-26 22:14 41.51510 -81.68749 589 ft 0 kts 205°
2026-04-26 22:15 41.51463 -81.68773 589 ft 15 kts 190°
2026-04-26 22:15 41.51366 -81.68730 590 ft 11 kts 167°
2026-04-26 22:15 41.51289 -81.68707 590 ft 12 kts 171°
2026-04-26 22:16 41.51233 -81.68751 590 ft 4 kts 229°
2026-04-26 22:16 41.51233 -81.68752 590 ft 0 kts 229°